[[[{"header":{"parameterUnit":"kt","parameterCategory":2,"dx":1,"dy":1,"la1":30.253999710083008,"la2":30.299108505249023,"lo1":-89.0895004272461,"lo2":-89.04439544677734,"nx":28,"ny":28,"refTime":"2022-09-19T21:00:00:Z","depth":0,"parameterNumber":1,"parameterNumberName":"U-component_of_WINDS"},"data":[-0.0237,-0.0243,-0.0297,-0.0329,-0.0383,-0.0416,-0.0445,-0.0489,-0.0539,-0.0586,-0.0623,-0.068,-0.0754,-0.0814,-0.0859,-0.0885,-0.0901,-0.0863,-0.09,-0.1017,-0.1037,-0.1057,-0.1059,-0.0865,-0.0865,-0.0772,-0.0771,-0.077,-0.0317,-0.0369,-0.0402,-0.047,-0.05,-0.0568,-0.0629,-0.065,-0.0678,-0.0739,-0.0779,-0.0827,-0.0872,-0.0961,-0.1015,-0.1023,-0.106,-0.1034,-0.1036,-0.1047,-0.1173,-0.1175,-0.1002,-0.1002,-0.1002,-0.1002,-0.1002,-0.1002,-0.0477,-0.0478,-0.0552,-0.0589,-0.0638,-0.0684,-0.0696,-0.0766,-0.0801,-0.0862,-0.0922,-0.0956,-0.103,-0.1124,-0.117,-0.1201,-0.1241,-0.1231,-0.1229,-0.1226,-0.1214,-0.1343,-0.1213,-0.1213,-0.1214,-0.1215,-0.1215,0,-0.0612,-0.0657,-0.0693,-0.0744,-0.0775,-0.0821,-0.0873,-0.0882,-0.1,-0.1024,-0.1065,-0.1098,-0.1164,-0.121,-0.1275,-0.1327,-0.1405,-0.1419,-0.1412,-0.1385,-0.135,-0.1371,-0.1576,-0.1423,-0.1425,-0.1426,-0.1428,-0.1428,-0.078,-0.0775,-0.0879,-0.0897,-0.0939,-0.0967,-0.0995,-0.11,-0.1126,-0.1207,-0.1205,-0.1252,-0.1295,-0.1353,-0.144,-0.1491,-0.153,-0.1465,-0.1539,-0.1511,-0.1532,-0.1532,-0.1533,-0.145,-0.1447,-0.1445,-0.1443,0,-0.0869,-0.096,-0.0971,-0.1076,-0.1102,-0.1093,-0.1184,-0.1191,-0.126,-0.128,-0.1291,-0.14,-0.144,-0.1537,-0.1603,-0.1653,-0.1643,-0.1679,-0.1618,-0.1631,-0.1584,-0.1588,-0.1414,-0.1397,-0.1597,-0.1595,-0.1593,0,-0.105,-0.104,-0.1176,-0.1178,-0.1171,-0.1278,-0.1268,-0.1327,-0.1393,-0.141,-0.1513,-0.1527,-0.165,-0.1679,-0.1753,-0.1762,-0.1774,-0.1814,-0.1835,-0.1806,-0.1801,-0.1825,-0.1835,-0.1878,-0.1879,-0.188,-0.1881,0,-0.1183,-0.1244,-0.1247,-0.1277,-0.1389,-0.1389,-0.1436,-0.1511,-0.1539,-0.159,-0.161,-0.1663,-0.1692,-0.1732,-0.1827,-0.1873,-0.184,-0.1924,-0.1882,-0.1879,-0.1871,-0.187,-0.1689,-0.1882,-0.1882,-0.1882,-0.1882,0,-0.1344,-0.1392,-0.1382,-0.1479,-0.1492,-0.1494,-0.1553,-0.1577,-0.1649,-0.1696,-0.1738,-0.182,-0.1834,-0.191,-0.1933,-0.1966,-0.199,-0.203,-0.2028,-0.2038,-0.212,-0.2007,-0.1822,-0.1808,-0.2043,-0.2045,-0.2046,0,-0.1472,-0.1487,-0.1579,-0.1568,-0.1589,-0.1705,-0.171,-0.177,-0.1833,-0.1861,-0.1932,-0.1964,-0.2041,-0.2066,-0.2063,-0.2139,-0.2095,-0.2147,-0.2191,-0.2191,-0.217,-0.2,-0.1949,-0.1851,-0.2064,-0.2063,-0.2061,0,-0.1584,-0.1721,-0.1712,-0.1751,-0.1848,-0.1866,-0.1871,-0.1926,-0.194,-0.1997,-0.2006,-0.2052,-0.2114,-0.2152,-0.2225,-0.2218,-0.2128,-0.2285,-0.2289,-0.2255,-0.2082,-0.2033,-0.2016,-0.2179,-0.2177,-0.2175,-0.2076,0,-0.181,-0.183,-0.181,-0.1891,-0.1921,-0.1919,-0.2023,-0.2041,-0.2108,-0.2175,-0.2189,-0.2267,-0.2324,-0.2331,-0.2397,-0.2348,-0.2373,-0.2437,-0.252,-0.2407,-0.2378,-0.2365,-0.2556,-0.2559,-0.2562,-0.2564,0,0,-0.1911,-0.1942,-0.2045,-0.2054,-0.2085,-0.2207,-0.2196,-0.2241,-0.2329,-0.2349,-0.2396,-0.2473,-0.2534,-0.2541,-0.2514,-0.2536,-0.2538,-0.2574,-0.246,-0.2448,-0.2437,-0.2403,-0.2388,-0.2569,-0.257,-0.2571,-0.2571,0,-0.2016,-0.2073,-0.206,-0.2111,-0.2191,-0.2263,-0.2259,-0.236,-0.2404,-0.2417,-0.252,-0.2541,-0.2599,-0.2651,-0.2685,-0.2575,-0.2652,-0.2584,-0.249,-0.2482,-0.2466,-0.2453,-0.2416,-0.2401,-0.2578,-0.2577,-0.2577,0,-0.2147,-0.222,-0.2225,-0.2302,-0.2355,-0.2374,-0.2486,-0.2501,-0.2517,-0.2652,-0.2664,-0.2721,-0.28,-0.2791,-0.2792,-0.2835,-0.275,-0.2795,-0.2782,-0.2785,-0.2783,-0.2764,-0.2747,-0.2969,-0.2969,-0.297,0,0,-0.2224,-0.2243,-0.2356,-0.2332,-0.2359,-0.2466,-0.2487,-0.2557,-0.2623,-0.2649,-0.2725,-0.2787,-0.2823,-0.2844,-0.2883,-0.2859,-0.2885,-0.2839,-0.282,-0.2805,-0.2799,-0.2793,-0.2774,-0.2974,-0.2974,-0.2974,0,0,-0.2261,-0.2392,-0.2448,-0.2433,-0.2491,-0.2603,-0.2585,-0.2657,-0.2703,-0.2715,-0.2835,-0.2857,-0.2852,-0.2904,-0.2938,-0.2915,-0.2995,-0.2989,-0.2881,-0.286,-0.2842,-0.283,-0.3066,0,0,0,0,0,-0.2423,-0.2376,-0.2425,-0.2438,-0.2537,-0.2575,-0.2589,-0.2686,-0.2741,-0.2724,-0.2799,-0.288,-0.2948,-0.2981,-0.2993,-0.2954,-0.3019,-0.3011,-0.3003,-0.2859,-0.2835,-0.2815,0,0,0,0,0,0,-0.2429,-0.2445,-0.2426,-0.2534,-0.2557,-0.2578,-0.2692,-0.2717,-0.2745,-0.276,-0.2863,-0.2883,-0.2968,-0.2981,-0.2991,-0.2952,-0.3063,-0.3016,-0.3009,-0.3003,-0.2851,-0.2831,-0.2814,0,0,0,0,0,-0.2435,-0.2447,-0.258,-0.2536,-0.2556,-0.2674,-0.2694,-0.2717,-0.274,-0.2856,-0.2879,-0.2811,-0.2964,-0.2979,-0.2987,-0.2945,-0.3057,-0.3061,-0.3011,-0.3006,-0.3001,-0.2841,0,0,0,0,0,0,-0.2439,-0.2469,-0.2586,-0.2596,-0.2561,-0.2675,-0.2696,-0.2715,-0.2837,-0.2858,-0.281,-0.282,-0.2961,-0.2973,-0.2984,-0.2937,-0.3053,-0.3056,-0.3058,-0.3007,-0.3003,-0.2999,0,0,0,0,0,0,-0.2463,-0.2476,-0.2591,-0.2618,-0.2632,-0.2675,-0.2693,-0.2715,-0.2836,-0.2784,-0.2797,-0.2813,-0.2946,-0.2969,-0.2978,-0.3007,-0.3049,-0.3052,-0.3054,-0.3056,-0.3004,-0.3,0,0,0,0,0,0,-0.247,-0.2482,-0.2616,-0.2626,-0.2639,-0.2757,-0.2696,-0.2792,-0.2857,-0.2777,-0.2866,-0.287,-0.2939,-0.295,-0.2972,-0.2998,-0.3005,-0.3049,-0.3051,-0.3053,-0.3054,0,0,0,0,0,0,0,-0.2476,-0.2374,-0.2527,-0.2633,-0.2645,-0.2687,-0.2689,-0.2692,-0.2858,-0.2861,-0.2865,-0.2868,-0.3032,-0.3035,-0.3038,-0.299,0,0,-0.3049,-0.305,0,0,0,0,0,0,0,0,-0.2372,-0.2374,-0.2527,-0.253,-0.2531,-0.2687,-0.2689,-0.2691,-0.2858,-0.2861,-0.2864,-0.2867,-0.3033,-0.3035,-0.3038,0,0,0,0,0,0,0,0,0,0,0,0,0,0,0,-0.2528,-0.2529,0,-0.2687,-0.2689,-0.2691,-0.2859,-0.2861,-0.2863,-0.2866,-0.3033,-0.3035,-0.3038,0,0,0,0,0,0,0,0,0,0,0,0,0,0,0,0,0,0,0,0,0,0,0,0,0,0,0,0,0,0,0,0,0,0,0,0,0,0,0,0,0,0,0,0,0,0,0,0,0,0,0,0,0,0,0,0,0,0,0,0,0,0,0,0,0,0,0,0,0]}],[{"header":{"parameterUnit":"kt","parameterCategory":2,"dx":1,"dy":1,"la1":30.253999710083008,"la2":30.299108505249023,"lo1":-89.0895004272461,"lo2":-89.04439544677734,"nx":28,"ny":28,"refTime":"2022-09-19T21:00:00:Z","depth":0,"parameterNumber":2,"parameterNumberName":"V-component_of_WINDS"},"data":[-0.2002,-0.2069,-0.2128,-0.2232,-0.2303,-0.2385,-0.2434,-0.2503,-0.2573,-0.2679,-0.2751,-0.2818,-0.2914,-0.3015,-0.3097,-0.3126,-0.3157,-0.3137,-0.3175,-0.3208,-0.3217,-0.3225,-0.3213,-0.3142,-0.3142,-0.3133,-0.3132,-0.3132,-0.2021,-0.2091,-0.2163,-0.2274,-0.2337,-0.2392,-0.2484,-0.2534,-0.2606,-0.2693,-0.2767,-0.2865,-0.2951,-0.3056,-0.315,-0.3184,-0.3217,-0.3205,-0.3205,-0.322,-0.3257,-0.3243,-0.3178,-0.3178,-0.3178,-0.3178,-0.3178,-0.3178,-0.2072,-0.2109,-0.2211,-0.2291,-0.2363,-0.2436,-0.2483,-0.2565,-0.2638,-0.2741,-0.2799,-0.2883,-0.2983,-0.3126,-0.3189,-0.3257,-0.3281,-0.3289,-0.3291,-0.3292,-0.3284,-0.3292,-0.3276,-0.3276,-0.3277,-0.3277,-0.3277,0,-0.2128,-0.2176,-0.2249,-0.234,-0.2402,-0.2479,-0.256,-0.259,-0.2713,-0.2767,-0.2852,-0.2912,-0.3029,-0.3117,-0.3218,-0.3284,-0.3349,-0.3362,-0.3368,-0.3342,-0.3305,-0.3327,-0.3386,-0.3363,-0.3364,-0.3364,-0.3365,-0.3365,-0.2186,-0.2222,-0.2358,-0.2402,-0.2461,-0.253,-0.2584,-0.2689,-0.2742,-0.2858,-0.2886,-0.2975,-0.3052,-0.3179,-0.3277,-0.3366,-0.3399,-0.3383,-0.3413,-0.3385,-0.3401,-0.3399,-0.3404,-0.3376,-0.3374,-0.3373,-0.3372,0,-0.2213,-0.2311,-0.2387,-0.2519,-0.2553,-0.2586,-0.27,-0.2743,-0.2819,-0.2888,-0.2911,-0.303,-0.3113,-0.3214,-0.3329,-0.338,-0.3439,-0.3468,-0.3405,-0.3417,-0.3415,-0.3414,-0.3387,-0.339,-0.3462,-0.3461,-0.3461,0,-0.2301,-0.2345,-0.249,-0.2529,-0.2582,-0.2687,-0.2737,-0.2808,-0.2896,-0.2951,-0.3041,-0.3091,-0.3213,-0.3279,-0.3354,-0.342,-0.3442,-0.3485,-0.3505,-0.3478,-0.3473,-0.351,-0.3514,-0.3546,-0.3546,-0.3546,-0.3546,0,-0.2335,-0.2463,-0.2527,-0.2573,-0.2719,-0.2746,-0.2808,-0.2908,-0.296,-0.3044,-0.3079,-0.3169,-0.3219,-0.3287,-0.3383,-0.3399,-0.3466,-0.3508,-0.3511,-0.3508,-0.3522,-0.352,-0.3469,-0.3546,-0.3546,-0.3546,-0.3546,0,-0.2422,-0.2504,-0.2581,-0.2705,-0.2735,-0.2777,-0.2873,-0.2932,-0.3031,-0.3081,-0.3148,-0.3221,-0.3285,-0.332,-0.3413,-0.3407,-0.3451,-0.3499,-0.3501,-0.3514,-0.3551,-0.3511,-0.345,-0.3449,-0.3525,-0.3525,-0.3524,0,-0.2434,-0.2539,-0.2631,-0.2702,-0.2764,-0.2862,-0.291,-0.2995,-0.3066,-0.313,-0.321,-0.3282,-0.3329,-0.3367,-0.3398,-0.3484,-0.3491,-0.3485,-0.358,-0.3582,-0.3552,-0.3497,-0.3463,-0.3452,-0.3523,-0.3524,-0.3524,0,-0.2456,-0.2633,-0.2639,-0.2696,-0.2825,-0.2878,-0.2933,-0.3029,-0.3066,-0.3151,-0.3202,-0.3306,-0.3347,-0.3407,-0.3476,-0.3503,-0.3489,-0.3544,-0.3548,-0.3532,-0.3531,-0.3499,-0.3496,-0.3529,-0.353,-0.353,-0.3523,0,-0.2569,-0.2634,-0.2655,-0.2777,-0.2833,-0.2883,-0.2992,-0.3037,-0.3098,-0.3172,-0.3248,-0.3345,-0.3442,-0.3466,-0.3526,-0.3556,-0.3568,-0.361,-0.3653,-0.3615,-0.3616,-0.3616,-0.3644,-0.3645,-0.3647,-0.3648,0,0,-0.2557,-0.2653,-0.2753,-0.281,-0.2865,-0.2966,-0.301,-0.3075,-0.3203,-0.3238,-0.3263,-0.3423,-0.3501,-0.3581,-0.3578,-0.3617,-0.3633,-0.3642,-0.3632,-0.363,-0.3628,-0.3627,-0.3625,-0.3651,-0.3652,-0.3652,-0.3653,0,-0.2621,-0.2697,-0.2739,-0.281,-0.292,-0.2997,-0.3006,-0.3133,-0.3183,-0.3257,-0.334,-0.3399,-0.3523,-0.3596,-0.3648,-0.3634,-0.3695,-0.3656,-0.3612,-0.3644,-0.364,-0.3636,-0.3634,-0.3631,-0.3657,-0.3657,-0.3656,0,-0.2664,-0.2757,-0.2788,-0.2916,-0.2989,-0.3051,-0.3122,-0.3184,-0.3231,-0.334,-0.3412,-0.3481,-0.3586,-0.3647,-0.3679,-0.3703,-0.3746,-0.3751,-0.3744,-0.375,-0.3787,-0.3781,-0.3776,-0.3841,-0.3841,-0.3842,0,0,-0.2705,-0.2766,-0.2899,-0.2938,-0.2978,-0.3093,-0.3137,-0.3202,-0.3294,-0.333,-0.342,-0.3507,-0.3582,-0.3628,-0.3703,-0.3755,-0.3786,-0.3769,-0.376,-0.3753,-0.3755,-0.3789,-0.3784,-0.3842,-0.3842,-0.3842,0,0,-0.2725,-0.2881,-0.2926,-0.2985,-0.3069,-0.3204,-0.3224,-0.3282,-0.3361,-0.3368,-0.3482,-0.351,-0.357,-0.3634,-0.3631,-0.3721,-0.3761,-0.3764,-0.3677,-0.3668,-0.3659,-0.3643,-0.3719,0,0,0,0,0,-0.2847,-0.2862,-0.2901,-0.2927,-0.3089,-0.3181,-0.3203,-0.3298,-0.3324,-0.3338,-0.3422,-0.3484,-0.3656,-0.3656,-0.3681,-0.3684,-0.3852,-0.385,-0.3848,-0.3749,-0.3738,-0.3728,0,0,0,0,0,0,-0.2858,-0.2889,-0.2901,-0.3034,-0.3072,-0.3182,-0.3248,-0.3274,-0.3325,-0.3336,-0.3466,-0.3488,-0.3571,-0.365,-0.3671,-0.3671,-0.3712,-0.3851,-0.385,-0.3848,-0.3745,-0.3736,-0.3728,0,0,0,0,0,-0.2867,-0.2893,-0.3128,-0.3035,-0.3068,-0.3197,-0.3248,-0.3271,-0.3312,-0.3443,-0.3467,-0.3379,-0.3568,-0.3593,-0.3663,-0.366,-0.3699,-0.3706,-0.385,-0.3849,-0.3848,-0.3741,0,0,0,0,0,0,-0.2874,-0.2914,-0.3137,-0.315,-0.3037,-0.3193,-0.3221,-0.3267,-0.3418,-0.3442,-0.3361,-0.3368,-0.3567,-0.3586,-0.3604,-0.365,-0.3687,-0.3695,-0.37,-0.3849,-0.3848,-0.3848,0,0,0,0,0,0,-0.2901,-0.2925,-0.3144,-0.314,-0.3154,-0.3188,-0.3213,-0.3287,-0.3418,-0.3328,-0.3338,-0.3362,-0.354,-0.3581,-0.3596,-0.3706,-0.3679,-0.3686,-0.3691,-0.3694,-0.3849,-0.3848,0,0,0,0,0,0,-0.2913,-0.2934,-0.3137,-0.3148,-0.3161,-0.3319,-0.3255,-0.3417,-0.3414,-0.332,-0.3417,-0.3418,-0.3534,-0.355,-0.3589,-0.3693,-0.3703,-0.3679,-0.3684,-0.3687,-0.369,0,0,0,0,0,0,0,-0.2923,-0.2764,-0.3057,-0.3155,-0.3166,-0.3275,-0.3278,-0.3282,-0.3414,-0.3415,-0.3416,-0.3417,-0.3638,-0.3646,-0.3654,-0.3683,0,0,-0.3678,-0.3682,0,0,0,0,0,0,0,0,-0.2757,-0.2762,-0.3057,-0.306,-0.3062,-0.3275,-0.3278,-0.3281,-0.3415,-0.3415,-0.3416,-0.3417,-0.364,-0.3647,-0.3653,0,0,0,0,0,0,0,0,0,0,0,0,0,0,0,-0.3057,-0.306,0,-0.3276,-0.3278,-0.3281,-0.3415,-0.3415,-0.3416,-0.3417,-0.3642,-0.3647,-0.3652,0,0,0,0,0,0,0,0,0,0,0,0,0,0,0,0,0,0,0,0,0,0,0,0,0,0,0,0,0,0,0,0,0,0,0,0,0,0,0,0,0,0,0,0,0,0,0,0,0,0,0,0,0,0,0,0,0,0,0,0,0,0,0,0,0,0,0,0,0]}]]]